EW1423 Weather Reports


Display with metric or nautical units.
time (UTC)temp
F
wind
direction
speed
MPH
gust
MPH
rain 1hr
in
rain 24hr
in
rain mn
in
humidity
%
barometer
mb
20260502224303 51 153 0.0 0.0 0.00 0.00 0.00 82 1016.4
20260502223804 51 153 0.0 0.0 0.00 0.00 0.00 81 1016.4
20260502223303 51 153 0.0 0.0 0.00 0.00 0.00 80 1016.3
20260502222305 52 153 0.0 0.0 0.00 0.00 0.00 80 1016.3
20260502221804 52 153 0.0 0.0 0.00 0.00 0.00 79 1016.3
20260502220810 52 153 0.0 0.0 0.00 0.00 0.00 79 1016.4
20260502220304 52 153 0.0 0.0 0.00 0.00 0.00 79 1016.4
20260502215804 52 153 0.0 0.0 0.00 0.00 0.00 79 1016.4
20260502214804 52 153 0.0 0.0 0.00 0.00 0.00 78 1016.4
20260502214304 52 153 0.0 0.0 0.00 0.00 0.00 78 1016.5
20260502213804 52 153 0.0 0.0 0.00 0.00 0.00 78 1016.5
20260502213304 53 153 0.0 0.0 0.00 0.00 0.00 77 1016.5
20260502212305 53 153 0.0 0.0 0.00 0.00 0.00 77 1016.5
20260502211804 53 153 0.0 0.0 0.00 0.00 0.00 76 1016.5
20260502211304 53 153 0.0 0.0 0.00 0.00 0.00 76 1016.5
20260502210803 54 153 0.0 0.0 0.00 0.00 0.00 75 1016.4
20260502210304 54 153 0.0 0.0 0.00 0.00 0.00 74 1016.7
20260502205804 54 153 0.0 0.0 0.00 0.00 0.00 74 1016.7
20260502205305 54 153 0.0 0.0 0.00 0.00 0.00 74 1016.7
20260502204804 54 153 0.0 0.0 0.00 0.00 0.00 74 1016.7
20260502204303 55 153 0.0 0.0 0.00 0.00 0.00 74 1016.7
20260502203803 55 153 0.0 0.0 0.00 0.00 0.00 72 1016.7
20260502203304 55 153 0.0 0.0 0.00 0.00 0.00 72 1016.7
20260502202819 55 153 0.0 0.0 0.00 0.00 0.00 72 1016.7
20260502202305 56 153 0.0 0.0 0.00 0.00 0.00 72 1016.7
20260502201304 56 153 0.0 0.0 0.00 0.00 0.00 71 1016.6
20260502200803 56 153 0.0 0.0 0.00 0.00 0.00 71 1016.6
20260502194304 58 153 0.0 0.0 0.00 0.00 0.00 65 1016.6
20260502193804 59 153 0.0 1.0 0.00 0.00 0.00 64 1016.6
20260502193303 59 153 0.0 0.0 0.00 0.00 0.00 64 1016.3
20260502192803 59 153 0.0 0.0 0.00 0.00 0.00 62 1016.3
20260502192305 60 153 0.0 0.0 0.00 0.00 0.00 63 1016.3
20260502191803 60 153 0.0 0.0 0.00 0.00 0.00 63 1016.3
20260502191303 60 153 0.0 0.0 0.00 0.00 0.00 64 1016.3
20260502190804 61 153 0.0 0.0 0.00 0.00 0.00 63 1016.3
20260502190304 61 153 0.0 0.0 0.00 0.00 0.00 62 1016.3
20260502185804 62 153 0.0 0.0 0.00 0.00 0.00 63 1016.1
20260502185305 63 153 0.0 0.0 0.00 0.00 0.00 59 1016.1
20260502184804 63 153 0.0 0.0 0.00 0.00 0.00 59 1016.1
20260502183303 66 153 0.0 0.0 0.00 0.00 0.00 55 1016.1
20260502182803 67 153 0.0 0.0 0.00 0.00 0.00 53 1016.1
20260502182305 67 153 0.0 1.0 0.00 0.00 0.00 54 1016.1
20260502181803 68 153 0.0 1.0 0.00 0.00 0.00 51 1016.1
20260502181304 69 153 0.0 0.0 0.00 0.00 0.00 50 1015.9
20260502180303 71 153 0.0 1.0 0.00 0.00 0.00 47 1016.2
20260502170303 80 186 0.0 2.0 0.00 0.00 0.00 28 1016.3
20260502163804 81 99 2.0 3.0 0.00 0.00 0.00 24 1016.5
20260502163304 82 173 0.0 2.0 0.00 0.00 0.00 23 1016.5
20260502162804 83 159 0.0 5.0 0.00 0.00 0.00 23 1016.5
20260502162304 84 116 0.0 5.0 0.00 0.00 0.00 23 1016.6
20260502161804 83 101 0.0 2.0 0.00 0.00 0.00 21 1017.0
20260502161304 83 101 1.0 2.0 0.00 0.00 0.00 22 1017.0
20260502160803 84 97 1.0 3.0 0.00 0.00 0.00 23 1017.0
20260502160304 84 137 1.0 2.0 0.00 0.00 0.00 21 1017.0
20260502152305 84 135 1.0 3.0 0.00 0.00 0.00 22 1017.8
20260502151803 85 13 1.0 2.0 0.00 0.00 0.00 23 1017.8
20260502150803 83 46 1.0 6.0 0.00 0.00 0.00 21 1017.8
20260502150304 84 147 1.0 5.0 0.00 0.00 0.00 24 1017.8
20260502130303 81 104 1.0 5.0 0.00 0.00 0.00 31 1019.5
20260502123303 79 107 2.0 5.0 0.00 0.00 0.00 31 1019.7
20260502122306 80 164 2.0 3.0 0.00 0.00 0.00 32 1019.8
20260502121803 79 286 1.0 3.0 0.00 0.00 0.00 36 1019.8
20260502121304 79 181 1.0 5.0 0.00 0.00 0.00 34 1020.2
20260502120804 80 165 2.0 5.0 0.00 0.00 0.00 33 1020.2
20260502120303 80 331 2.0 5.0 0.00 0.00 0.00 34 1020.2
20260502115803 80 264 1.0 6.0 0.00 0.00 0.00 34 1020.2
20260502115306 80 288 1.0 5.0 0.00 0.00 0.00 37 1020.2
20260502114803 80 234 1.0 6.0 0.00 0.00 0.00 36 1020.3
20260502114303 80 250 1.0 3.0 0.00 0.00 0.00 35 1021.3
20260502113804 80 123 1.0 2.0 0.00 0.00 0.00 35 1021.3
20260502113303 79 98 1.0 3.0 0.00 0.00 0.00 37 1021.3
20260502112803 79 345 1.0 3.0 0.00 0.00 0.00 38 1021.3
20260502112306 79 270 2.0 6.0 0.00 0.00 0.00 35 1021.3
20260502111804 79 287 1.0 5.0 0.00 0.00 0.00 36 1021.3
20260502111303 79 294 2.0 6.0 0.00 0.00 0.00 41 1021.3
20260502110304 79 298 1.0 3.0 0.00 0.00 0.00 38 1021.3
20260502105804 78 295 2.0 6.0 0.00 0.00 0.00 38 1021.3
20260502104804 77 146 1.0 7.0 0.00 0.00 0.00 40 1021.3
20260502104303 77 164 1.0 5.0 0.00 0.00 0.00 40 1021.3
20260502103803 77 337 2.0 6.0 0.00 0.00 0.00 40 1021.3
20260502103304 78 318 1.0 2.0 0.00 0.00 0.00 40 1021.5
20260502102804 77 318 0.0 5.0 0.00 0.00 0.00 38 1021.5
20260502102306 77 243 0.0 3.0 0.00 0.00 0.00 36 1021.7
20260502101803 77 271 1.0 7.0 0.00 0.00 0.00 40 1021.7
20260502101303 77 275 1.0 3.0 0.00 0.00 0.00 39 1021.7
20260502100803 77 61 0.0 2.0 0.00 0.00 0.00 38 1021.9
20260502100303 75 61 1.0 2.0 0.00 0.00 0.00 40 1021.9
20260502091303 71 83 1.0 3.0 0.00 0.00 0.00 45 1022.4
20260502090804 70 87 1.0 5.0 0.00 0.00 0.00 48 1022.4
20260502071304 60 137 1.0 3.0 0.00 0.00 0.00 59 1022.9
20260502070804 60 85 1.0 3.0 0.00 0.00 0.00 63 1022.9
20260502070303 59 97 1.0 2.0 0.00 0.00 0.00 62 1022.9
20260502065306 57 67 2.0 5.0 0.00 0.00 0.00 64 1023.0
20260502064803 57 77 1.0 3.0 0.00 0.00 0.00 65 1023.0
20260502064303 56 97 1.0 3.0 0.00 0.00 0.00 66 1023.1
20260502063303 55 88 1.0 3.0 0.00 0.00 0.00 69 1023.1
20260502062804 54 146 2.0 3.0 0.00 0.00 0.00 69 1023.1
20260502062306 53 138 1.0 3.0 0.00 0.00 0.00 72 1023.1
20260502061803 53 98 1.0 3.0 0.00 0.00 0.00 73 1023.1
20260502061304 52 138 1.0 2.0 0.00 0.00 0.00 74 1023.1
20260502060803 51 134 2.0 5.0 0.00 0.00 0.00 75 1023.2
20260502060303 50 136 0.0 2.0 0.00 0.00 0.00 77 1023.2
20260502054804 47 145 1.0 3.0 0.00 0.00 0.00 83 1023.2
20260502054303 47 114 1.0 3.0 0.00 0.00 0.00 84 1023.2
20260502053803 46 149 2.0 6.0 0.00 0.00 0.00 85 1023.3
20260502053304 45 159 1.0 5.0 0.00 0.00 0.00 86 1023.3
20260502052804 45 155 2.0 6.0 0.00 0.00 0.00 88 1023.2
20260502051804 44 94 1.0 3.0 0.00 0.00 0.00 90 1023.2
20260502050803 43 134 0.0 2.0 0.00 0.00 0.00 91 1023.2
20260502050303 42 142 1.0 5.0 0.00 0.00 0.00 92 1023.2
20260502045803 42 132 0.0 2.0 0.00 0.00 0.00 92 1023.2
20260502045306 41 132 0.0 2.0 0.00 0.00 0.00 93 1023.2
20260502044803 41 132 0.0 1.0 0.00 0.00 0.00 95 1023.2
20260502044304 40 132 0.0 1.0 0.00 0.00 0.00 95 1023.2
20260502043303 40 132 0.0 1.0 0.00 0.00 0.00 96 1023.2
20260502042804 40 132 0.0 0.0 0.00 0.00 0.00 96 1023.2
20260502041303 40 132 0.0 0.0 0.00 0.00 0.00 95 1023.2
20260502040804 40 132 0.0 0.0 0.00 0.00 0.00 94 1023.2
20260502040304 40 132 0.0 0.0 0.00 0.00 0.00 94 1023.2
20260502035803 40 132 0.0 0.0 0.00 0.00 0.00 93 1023.1
20260502035306 41 132 0.0 0.0 0.00 0.00 0.00 92 1023.1
20260502034803 41 132 0.0 0.0 0.00 0.00 0.00 92 1023.1
20260502034303 41 132 0.0 0.0 0.00 0.00 0.00 93 1023.1
20260502033804 41 132 0.0 1.0 0.00 0.00 0.00 93 1023.1
20260502033304 41 132 0.0 1.0 0.00 0.00 0.00 93 1023.1
20260502032803 41 132 0.0 0.0 0.00 0.00 0.00 93 1023.0
20260502032306 42 132 0.0 0.0 0.00 0.00 0.00 93 1023.0
20260502031804 42 132 0.0 1.0 0.00 0.00 0.00 93 1023.0
20260502031305 42 132 0.0 2.0 0.00 0.00 0.00 93 1022.7
20260502030804 41 134 0.0 2.0 0.00 0.00 0.00 93 1022.7
20260502025804 41 134 0.0 0.0 0.00 0.00 0.00 93 1023.1
20260502025306 41 134 0.0 1.0 0.00 0.00 0.00 93 1023.1
20260502024804 41 134 0.0 0.0 0.00 0.00 0.00 92 1023.1
20260502023803 42 134 0.0 0.0 0.00 0.00 0.00 91 1023.1
20260502023303 42 134 0.0 1.0 0.00 0.00 0.00 91 1023.2
20260502022803 42 134 0.0 1.0 0.00 0.00 0.00 92 1023.4
20260502022306 42 134 0.0 1.0 0.00 0.00 0.00 92 1023.4
20260502021304 42 134 0.0 0.0 0.00 0.00 0.00 91 1023.4
20260502020804 42 134 0.0 0.0 0.00 0.00 0.00 91 1023.4
20260502020303 42 134 0.0 1.0 0.00 0.00 0.00 91 1023.4
20260502015803 42 134 0.0 0.0 0.00 0.00 0.00 91 1023.4
20260502015305 42 134 0.0 1.0 0.00 0.00 0.00 91 1023.6
20260502014803 42 134 0.0 1.0 0.00 0.00 0.00 91 1023.6
20260502014303 43 134 0.0 0.0 0.00 0.00 0.00 90 1023.6
20260502013804 43 134 0.0 0.0 0.00 0.00 0.00 91 1023.6
20260502013303 42 134 0.0 2.0 0.00 0.00 0.00 91 1023.5
20260502012804 42 114 0.0 0.0 0.00 0.00 0.00 91 1023.8
20260502012306 42 114 0.0 0.0 0.00 0.00 0.00 91 1023.8
20260502011803 42 114 0.0 0.0 0.00 0.00 0.00 91 1023.8
20260502011304 42 114 0.0 0.0 0.00 0.00 0.00 91 1023.8
20260502010803 42 114 0.0 0.0 0.00 0.00 0.00 90 1023.8
20260502010304 42 114 0.0 0.0 0.00 0.00 0.00 91 1023.8
20260502005803 42 114 0.0 0.0 0.00 0.00 0.00 90 1023.8
20260502005306 42 114 0.0 0.0 0.00 0.00 0.00 89 1023.8
20260502004803 43 114 0.0 0.0 0.00 0.00 0.00 90 1023.9
20260502003804 43 114 0.0 0.0 0.00 0.00 0.00 88 1024.2
20260502003303 43 114 0.0 0.0 0.00 0.00 0.00 89 1024.2
20260502002804 43 114 0.0 0.0 0.00 0.00 0.00 89 1024.2
20260502002305 43 114 0.0 0.0 0.00 0.00 0.00 88 1024.2
20260502001804 43 114 0.0 0.0 0.00 0.00 0.00 88 1024.2
20260502001303 44 114 0.0 0.0 0.00 0.00 0.00 86 1024.2
20260502000803 44 114 0.0 0.0 0.00 0.00 0.00 85 1024.2
20260501235804 44 114 0.0 0.0 0.00 0.00 0.00 85 1024.2
20260501235305 45 114 0.0 0.0 0.00 0.00 0.00 85 1024.2
20260501234804 44 114 0.0 0.0 0.00 0.00 0.00 86 1024.2
20260501234304 45 114 0.0 0.0 0.00 0.00 0.00 84 1024.2
20260501233804 45 114 0.0 0.0 0.00 0.00 0.00 85 1024.2
20260501233303 45 114 0.0 0.0 0.00 0.00 0.00 84 1024.2
20260501232803 45 114 0.0 0.0 0.00 0.00 0.00 84 1024.2
20260501232306 45 114 0.0 0.0 0.00 0.00 0.00 84 1024.2
20260501231804 46 114 0.0 0.0 0.00 0.00 0.00 84 1024.2
20260501231304 46 114 0.0 0.0 0.00 0.00 0.00 83 1024.2
20260501230803 46 114 0.0 0.0 0.00 0.00 0.00 82 1024.2
20260501225803 47 114 0.0 0.0 0.00 0.00 0.00 81 1024.2
20260501225306 47 114 0.0 0.0 0.00 0.00 0.00 81 1024.2
20260501224804 47 114 0.0 0.0 0.00 0.00 0.00 80 1024.2